Simultaneous Nadir Overpasses (SNOs) Predictions

Prediction of SNOs between GOES-16 and NOAA-19 Satellite Orbit:

Table of predicted SNOs for the next 14.0 days since TLE Epoch: 6/24/2023
Index Date Time (GOES-16) GOES-16 Lat,Lon NOAA-19 Lat,Lon Distance(km) Time Diff (sec)
1 06/25/2023 13:47:37 -0.01, -75.20 0.50, -77.31 240.60 80
2 06/26/2023 13:32:55 -0.02, -75.21 -0.18, -74.37 94.89 80
3 06/27/2023 13:20:52 -0.02, -75.22 -0.87, -71.44 430.40 80
4 06/29/2023 01:55:43 0.01, -75.23 -0.87, -79.16 448.60 80
5 06/30/2023 01:43:40 0.02, -75.24 -0.20, -76.23 113.09 80
6 07/01/2023 01:28:58 0.02, -75.25 0.48, -73.30 222.41 80
7 07/03/2023 13:51:41 -0.02, -75.27 0.62, -78.06 318.50 80
8 07/04/2023 13:36:58 -0.03, -75.28 -0.08, -75.13 17.32 80
9 07/05/2023 13:24:55 -0.04, -75.29 -0.73, -72.19 353.14 80
